When you browse on this site, cookies collect data to enhance your experience and personalize the content and advertising you see.
Visit our Privacy Policy to learn more. By continuing to use the site, you agree to this use of cookies and data.
  • In Romania
  • List of Countries
  • For 7 days
  • Water Temperature
  • Weather Map
  • Weather Widgets
  • user-avatar
    Login

    Hourly Weather Dori

    Today, 20 September, Friday

    Time Temperature Precipitation Wind Pressure Humidity
    00:00 +33°C° 0 mm 5 mps 734 mmHg 51%
    01:00 +33°C° 0 mm 5 mps 734 mmHg 53%
    02:00 +33°C° 0 mm 5 mps 733 mmHg 55%
    03:00 +32°C° 0 mm 4 mps 733 mmHg 57%
    04:00 +32°C° 0 mm 5 mps 734 mmHg 59%
    05:00 +30°C° 0 mm 5 mps 734 mmHg 60%
    06:00 +30°C° 0 mm 5 mps 735 mmHg 62%
    07:00 +32°C° 0 mm 6 mps 735 mmHg 60%
    08:00 +32°C° 0 mm 6 mps 735 mmHg 58%
    09:00 +32°C° 0 mm 7 mps 736 mmHg 56%
    10:00 +34°C° 0 mm 6 mps 735 mmHg 49%
    11:00 +36°C° 0 mm 6 mps 735 mmHg 41%
    12:00 +39°C° 0 mm 5 mps 735 mmHg 34%
    13:00 +40°C° 0 mm 5 mps 734 mmHg 32%
    14:00 +40°C° 0 mm 5 mps 733 mmHg 31%
    15:00 +40°C° 0 mm 6 mps 733 mmHg 29%
    16:00 +40°C° 0 mm 5 mps 733 mmHg 31%
    17:00 +38°C° 0 mm 4 mps 733 mmHg 33%
    18:00 +37°C° 0 mm 4 mps 733 mmHg 35%
    19:00 +36°C° 0 mm 4 mps 734 mmHg 37%
    20:00 +35°C° 0 mm 3 mps 734 mmHg 38%
    21:00 +34°C° 0 mm 3 mps 734 mmHg 40%
    22:00 +34°C° 0 mm 3 mps 734 mmHg 42%
    23:00 +33°C° 0 mm 3 mps 734 mmHg 44%

    Tomorrow, 21 September, Saturday

    Time Temperature Precipitation Wind Pressure Humidity
    00:00 +33°C° 0 mm 3 mps 734 mmHg 46%
    01:00 +31°C° 0.1 mm 3 mps 734 mmHg 47%
    02:00 +32°C° 0.1 mm 4 mps 734 mmHg 49%
    03:00 +30°C° 0.1 mm 4 mps 733 mmHg 51%
    04:00 +30°C° 0 mm 4 mps 734 mmHg 53%
    05:00 +29°C° 0 mm 3 mps 734 mmHg 54%
    06:00 +29°C° 0 mm 3 mps 734 mmHg 56%
    07:00 +30°C° 0 mm 3 mps 735 mmHg 52%
    08:00 +33°C° 0 mm 3 mps 735 mmHg 48%
    09:00 +34°C° 0 mm 3 mps 735 mmHg 44%
    10:00 +36°C° 0 mm 3 mps 735 mmHg 40%
    11:00 +37°C° 0 mm 2 mps 734 mmHg 37%
    12:00 +38°C° 0 mm 2 mps 734 mmHg 33%
    13:00 +39°C° 0 mm 1 mps 733 mmHg 30%
    14:00 +40°C° 0 mm 1 mps 733 mmHg 28%
    15:00 +41°C° 0 mm 1 mps 732 mmHg 26%
    16:00 +40°C° 0.1 mm 1 mps 732 mmHg 27%
    17:00 +40°C° 0.1 mm 1 mps 732 mmHg 28%
    18:00 +40°C° 0.1 mm 1 mps 732 mmHg 28%
    19:00 +39°C° 0.3 mm 1 mps 732 mmHg 31%
    20:00 +38°C° 0.3 mm 2 mps 733 mmHg 34%
    21:00 +36°C° 0.3 mm 2 mps 733 mmHg 37%
    22:00 +36°C° 0.3 mm 2 mps 733 mmHg 38%
    23:00 +35°C° 0.3 mm 3 mps 733 mmHg 39%

    Day after tomorrow, 22 September, Sunday

    Time Temperature Precipitation Wind Pressure Humidity
    00:00 +35°C° 0.3 mm 3 mps 733 mmHg 40%
    01:00 +34°C° 0 mm 4 mps 733 mmHg 42%
    02:00 +34°C° 0 mm 4 mps 732 mmHg 45%
    03:00 +34°C° 0 mm 5 mps 732 mmHg 47%
    04:00 +33°C° 0 mm 4 mps 733 mmHg 51%
    05:00 +33°C° 0 mm 4 mps 733 mmHg 54%
    06:00 +31°C° 0 mm 3 mps 733 mmHg 57%
    07:00 +33°C° 0 mm 4 mps 734 mmHg 53%
    08:00 +34°C° 0 mm 4 mps 734 mmHg 48%
    09:00 +36°C° 0 mm 4 mps 734 mmHg 43%
    10:00 +37°C° 0 mm 4 mps 734 mmHg 39%
    11:00 +40°C° 0 mm 4 mps 733 mmHg 34%
    12:00 +41°C° 0 mm 4 mps 733 mmHg 30%
    13:00 +42°C° 0 mm 3 mps 732 mmHg 26%
    14:00 +42°C° 0 mm 2 mps 732 mmHg 23%
    15:00 +42°C° 0 mm 1 mps 731 mmHg 19%
    16:00 +42°C° 0 mm 2 mps 731 mmHg 20%
    17:00 +41°C° 0 mm 2 mps 731 mmHg 21%
    18:00 +41°C° 0 mm 2 mps 731 mmHg 22%
    19:00 +40°C° 0 mm 2 mps 731 mmHg 23%
    20:00 +39°C° 0 mm 2 mps 732 mmHg 25%
    21:00 +38°C° 0 mm 2 mps 732 mmHg 26%
    22:00 +37°C° 0 mm 4 mps 732 mmHg 32%
    23:00 +36°C° 0 mm 6 mps 732 mmHg 38%

    23 September, Monday

    Time Temperature Precipitation Wind Pressure Humidity
    00:00 +35°C° 0 mm 7 mps 732 mmHg 43%
    01:00 +34°C° 0 mm 7 mps 732 mmHg 45%
    02:00 +34°C° 0 mm 6 mps 732 mmHg 47%
    03:00 +33°C° 0 mm 5 mps 732 mmHg 48%
    04:00 +33°C° 0 mm 5 mps 732 mmHg 53%
    05:00 +32°C° 0 mm 4 mps 732 mmHg 57%
    06:00 +31°C° 0 mm 3 mps 733 mmHg 62%
    07:00 +33°C° 0 mm 4 mps 733 mmHg 57%
    08:00 +35°C° 0 mm 4 mps 733 mmHg 52%
    09:00 +36°C° 0 mm 5 mps 734 mmHg 47%
    10:00 +37°C° 0 mm 4 mps 733 mmHg 42%
    11:00 +40°C° 0 mm 4 mps 733 mmHg 36%
    12:00 +41°C° 0 mm 4 mps 732 mmHg 31%
    13:00 +42°C° 0 mm 3 mps 732 mmHg 27%
    14:00 +42°C° 0 mm 2 mps 731 mmHg 23%
    15:00 +43°C° 0 mm 1 mps 731 mmHg 19%
    16:00 +41°C° 0.1 mm 2 mps 731 mmHg 23%
    17:00 +39°C° 0.1 mm 3 mps 731 mmHg 26%
    18:00 +39°C° 0.1 mm 5 mps 731 mmHg 29%
    19:00 +37°C° 0.1 mm 5 mps 732 mmHg 33%
    20:00 +36°C° 0.1 mm 5 mps 732 mmHg 37%
    21:00 +35°C° 0.1 mm 6 mps 733 mmHg 40%
    22:00 +35°C° 0 mm 6 mps 733 mmHg 42%
    23:00 +34°C° 0 mm 6 mps 733 mmHg 43%

    24 September, Tuesday

    Time Temperature Precipitation Wind Pressure Humidity
    00:00 +33°C° 0 mm 6 mps 733 mmHg 44%
    01:00 +32°C° 0 mm 5 mps 733 mmHg 45%
    02:00 +32°C° 0 mm 5 mps 733 mmHg 47%
    03:00 +30°C° 0 mm 5 mps 733 mmHg 48%
    04:00 +30°C° 0 mm 5 mps 733 mmHg 54%
    05:00 +29°C° 0 mm 6 mps 734 mmHg 60%
    06:00 +29°C° 0 mm 6 mps 734 mmHg 66%
    07:00 +30°C° 0 mm 7 mps 735 mmHg 66%
    08:00 +32°C° 0 mm 7 mps 735 mmHg 65%
    09:00 +32°C° 0 mm 8 mps 735 mmHg 65%
    10:00 +34°C° 0 mm 7 mps 735 mmHg 57%
    11:00 +36°C° 0 mm 7 mps 734 mmHg 49%
    12:00 +38°C° 0 mm 6 mps 734 mmHg 41%
    13:00 +39°C° 0 mm 5 mps 733 mmHg 37%
    14:00 +38°C° 0 mm 4 mps 733 mmHg 34%
    15:00 +39°C° 0 mm 3 mps 732 mmHg 31%
    16:00 +38°C° 0 mm 3 mps 732 mmHg 32%
    17:00 +38°C° 0 mm 3 mps 732 mmHg 33%
    18:00 +37°C° 0 mm 3 mps 733 mmHg 34%
    19:00 +36°C° 0 mm 3 mps 733 mmHg 36%
    20:00 +36°C° 0 mm 3 mps 733 mmHg 37%
    21:00 +35°C° 0 mm 3 mps 734 mmHg 38%
    22:00 +34°C° 0 mm 3 mps 734 mmHg 42%
    23:00 +33°C° 0 mm 4 mps 734 mmHg 46%

    25 September, Wednesday

    Time Temperature Precipitation Wind Pressure Humidity
    00:00 +32°C° 0 mm 5 mps 734 mmHg 50%
    01:00 +32°C° 0 mm 5 mps 733 mmHg 52%
    02:00 +30°C° 0 mm 5 mps 733 mmHg 54%
    03:00 +30°C° 0 mm 5 mps 733 mmHg 55%
    04:00 +29°C° 0 mm 5 mps 733 mmHg 57%
    05:00 +29°C° 0 mm 5 mps 733 mmHg 58%
    06:00 +28°C° 0 mm 5 mps 734 mmHg 60%
    07:00 +30°C° 0 mm 6 mps 734 mmHg 55%
    08:00 +32°C° 0 mm 6 mps 734 mmHg 50%
    09:00 +34°C° 0 mm 6 mps 735 mmHg 44%
    10:00 +35°C° 0 mm 5 mps 734 mmHg 41%
    11:00 +37°C° 0 mm 5 mps 734 mmHg 37%
    12:00 +39°C° 0 mm 5 mps 734 mmHg 34%
    13:00 +40°C° 0 mm 4 mps 733 mmHg 32%
    14:00 +39°C° 0 mm 3 mps 733 mmHg 31%
    15:00 +40°C° 0 mm 3 mps 732 mmHg 29%
    16:00 +39°C° 0 mm 2 mps 732 mmHg 30%
    17:00 +39°C° 0 mm 2 mps 732 mmHg 30%
    18:00 +38°C° 0 mm 2 mps 732 mmHg 31%
    19:00 +38°C° 0 mm 3 mps 733 mmHg 34%
    20:00 +37°C° 0 mm 4 mps 733 mmHg 37%
    21:00 +36°C° 0 mm 5 mps 734 mmHg 40%
    22:00 +35°C° 0.2 mm 4 mps 734 mmHg 43%
    23:00 +34°C° 0.2 mm 4 mps 734 mmHg 46%
    Show more